Showing default

GHGSAT-C13, 64548

Orbit data source: Space-Track

GHGSAT-C13, 64548 is a payload satellite owned by GHG (CA) in SSO that was launched on Mon, 23 Jun 2025 UTC via an FALCON 9 launch vehicle from the Air Force Western Test Range (AFWTR). Payload-class satellites include a variety of spacecraft equipped with specific instruments for various scientific and technological missions. These include communications satellites like Starlink; space stations such as the ISS; scientific satellites like the Hubble; Earth observation satellites from companies like Planet Labs, Umbra, and HawkEye 360; GPS; miniature CubeSats for education and research; and military/defense satellites.

Loading next visibility...
Identifier
64548, 2025-135W
Orbit
SSO
Country
Flag of CACA
Related business
Manufacturer
UTIAS-SFL
Mission
Operational Commercial Earth Obs Sci
Bus & Motor
NEMO-V1, Unknown motor
Mass
15 kg wet, 15 kg dry
Launch date (UTC)
2025-06-23 (1 year ago)
Launch vehicle
FALCON 9
Launch site
Air Force Western Test Range (AFWTR)
Object type
Payload
Rocket body
Debris
Shape & HBR
Box, 1.0 m
Radar Cross Section
0.100 m², Medium (>0.1 m² and < 1m²)

Expand to show TLE details & history
Last TLE update: 6 hours ago

TLE from 6 hours ago
0 GHGSAT-C13
1 64548U 25135W   26221.85602935  .00003403  00000-0  15372-3 0  9995
2 64548  97.4815 336.8752 0000568  85.0526 275.0774 15.21648614 63012
Epoch: 2026-08-09T20:32Z
TLE epoch observation values (Epoch: 2026-08-09T20:32:40.935Z)
Latitude
-0.00011°
Longitude
70.35763°
Altitude
503.923 km
Speed
7.612 km/s
True Right ascension
22h 27m 30s
True Declination
0° 00' 00"
Sunlit
Object was in full shadow at epoch
Visualization orbit readout
Latitude
Unknown
Longitude
Unknown
Altitude
Unknown
Speed
Unknown
Apparent Right ascension
Unknown
Apparent Declination
Unknown
Sunlit
N/A
Visualization observer readout
Local Sidereal Time
16:22:57
Azimuth
Unknown
Elevation
Unknown
Doppler factor
Unknown
Orbital elements
Apogee altitude
498.225 km
Perigee altitude
497.444 km
Semi-major axis
6,875.971 km
Eccentricity
0.00006
Inclination
97.4815°
RAAN
336.8752°
Arg. of periapsis
85.0526°
True anomaly
275.07092°
Mean anomaly
275.0774°
Eccentric anomaly
275.07416°
Mean motion
3.80664 °/min
Orbital period
94.57 mins
BSTAR
0.00015372
Loading maneuver chart data...
Computing Atmospheric mass density...
Loading historical data...
Loading historical data...
Loading historical data...
Loading historical data...
Loading historical data...
Loading historical data...
Loading historical data...

Documentation

Showing up to 5 results
|